Porosity — WDF7776 — position and weather

sailwx.info

Track history (hours):
 
Tides and Currents Weather Stations Pressure Air Temp Water Temp Dewpoint Dewpoint Depression Visibility Wind Speed Wind Dir Waves Ship Positions

Porosity

More information available from US FCC via Universal Licensing System and Coast Guard Vessel Documentation Center.

Last reported at 2014-Sep-10 19:24 UTC. Time now 2014-Sep-19 17:57 UTC.
Position N 48°46' W 123°36'.
Warning: this ship's position is 8 days out of date.

Length 19 m.

Type: Pleasure craft. MMSI: 367488010.

Date/timePositionNaut miles runAvg speedWind from/ knotsBaromVisibWave heightAir tempDewpointWater temp
2014-Sep-10 19:24N 48°46' W 123°36'10 0.4
2014-Sep-09 15:10N 48°39' W 123°24'0 0.0
2014-Sep-09 14:25N 48°39' W 123°24'9 0.5
2014-Sep-08 18:30N 48°31' W 123°17'7 7.3
2014-Sep-08 17:33N 48°24' W 123°17'4 0.1
2014-Sep-06 20:27N 48°25' W 123°23'4 4.4
2014-Sep-06 19:33N 48°24' W 123°18'7 7.0
2014-Sep-06 18:33N 48°30' W 123°14'7 0.5
2014-Sep-06 04:20N 48°36' W 123°10'0 0.1
2014-Sep-05 22:09N 48°36' W 123°10'5 8.4
2014-Sep-05 21:33N 48°31' W 123°10'26 8.2
2014-Sep-05 18:27N 48°11' W 122°46'16 0.8
2014-Sep-04 21:13N 47°56' W 122°34'5 7.0
2014-Sep-04 20:33N 47°53' W 122°30'3 7.7
2014-Sep-04 20:08N 47°50' W 122°29'5 8.0
2014-Sep-04 19:33N 47°45' W 122°28'0 0.0
2014-Sep-04 19:33N 47°45' W 122°28'8 0.5
2014-Sep-04 02:10N 47°38' W 122°24'0 0.0
2014-Sep-04 00:22N 47°38' W 122°24'0 0.0
2014-Sep-03 23:04N 47°38' W 122°24'0 0.0
2014-Sep-03 22:45N 47°38' W 122°24'0 0.0
2014-Sep-03 12:42N 47°38' W 122°24'0 0.0
2014-Sep-03 12:12N 47°38' W 122°24'0 0.0
2014-Sep-03 10:42N 47°38' W 122°24'0 0.0
2014-Sep-03 02:19N 47°38' W 122°24'2 0.4
2014-Sep-02 21:05N 47°39' W 122°26'0 7.5
2014-Sep-02 21:03N 47°39' W 122°26'4 7.9
2014-Sep-02 20:33N 47°43' W 122°26'0 8.0
2014-Sep-02 20:32N 47°43' W 122°26'8 8.0
2014-Sep-02 19:33N 47°51' W 122°29'  
Track history (hours):
 
Tides and Currents Weather Stations Pressure Air Temp Water Temp Dewpoint Dewpoint Depression Visibility Wind Speed Wind Dir Waves Ship Positions

Porosity

More information available from US FCC via Universal Licensing System and Coast Guard Vessel Documentation Center.

Last reported at 2014-Sep-10 19:24 UTC. Time now 2014-Sep-19 17:57 UTC.
Position N 48°46' W 123°36'.
Warning: this ship's position is 8 days out of date.

Length 19 m.

Type: Pleasure craft. MMSI: 367488010.

Date/timePositionNaut miles runAvg speedWind from/ knotsBaromVisibWave heightAir tempDewpointWater temp
2014-Sep-10 19:24N 48°46' W 123°36'10 0.4
2014-Sep-09 15:10N 48°39' W 123°24'0 0.0
2014-Sep-09 14:25N 48°39' W 123°24'9 0.5
2014-Sep-08 18:30N 48°31' W 123°17'7 7.3
2014-Sep-08 17:33N 48°24' W 123°17'4 0.1
2014-Sep-06 20:27N 48°25' W 123°23'4 4.4
2014-Sep-06 19:33N 48°24' W 123°18'7 7.0
2014-Sep-06 18:33N 48°30' W 123°14'7 0.5
2014-Sep-06 04:20N 48°36' W 123°10'0 0.1
2014-Sep-05 22:09N 48°36' W 123°10'5 8.4
2014-Sep-05 21:33N 48°31' W 123°10'26 8.2
2014-Sep-05 18:27N 48°11' W 122°46'16 0.8
2014-Sep-04 21:13N 47°56' W 122°34'5 7.0
2014-Sep-04 20:33N 47°53' W 122°30'3 7.7
2014-Sep-04 20:08N 47°50' W 122°29'5 8.0
2014-Sep-04 19:33N 47°45' W 122°28'0 0.0
2014-Sep-04 19:33N 47°45' W 122°28'8 0.5
2014-Sep-04 02:10N 47°38' W 122°24'0 0.0
2014-Sep-04 00:22N 47°38' W 122°24'0 0.0
2014-Sep-03 23:04N 47°38' W 122°24'0 0.0
2014-Sep-03 22:45N 47°38' W 122°24'0 0.0
2014-Sep-03 12:42N 47°38' W 122°24'0 0.0
2014-Sep-03 12:12N 47°38' W 122°24'0 0.0
2014-Sep-03 10:42N 47°38' W 122°24'0 0.0
2014-Sep-03 02:19N 47°38' W 122°24'2 0.4
2014-Sep-02 21:05N 47°39' W 122°26'0 7.5
2014-Sep-02 21:03N 47°39' W 122°26'4 7.9
2014-Sep-02 20:33N 47°43' W 122°26'0 8.0
2014-Sep-02 20:32N 47°43' W 122°26'8 8.0
2014-Sep-02 19:33N 47°51' W 122°29'  

Dump ship's entire track history